{"data":{"norad_id":58069,"epoch":"2026-05-25T01:51:13.149792Z","epoch_age_seconds":78662,"freshness":"FRESH","line1":"1 58069U 23158U   26145.07723553  .00001418  00000+0  61060-4 0  9997","line2":"2 58069  43.0037 173.4348 0001638 273.3240  86.7424 15.27579202146929","mean_motion":15.27579202,"eccentricity":0.0001638,"inclination_deg":43.0037,"raan_deg":173.4348,"arg_perigee_deg":273.324,"mean_anomaly_deg":86.7424,"bstar":6.106e-5,"rev_number":14692,"period_min":94.266797958146,"perigee_km":481.92762286584,"apogee_km":484.1753482137,"semimajor_km":6861.1884855398,"source":"CELESTRAK","updated_at":"2026-05-25T13:38:18.502861Z"}}